Other Surface Observations
Issued by NWS Charleston, SC

Home | Current Version | Previous Version | Text Only | Print | Product List | Glossary On
Versions: 1 2 3 4 5 6 7 8 9 10 11 12 13 14 15 16 17 18 19 20 21 22 23 24 25 26 27 28 29 30 31 32 33 34 35 36 37 38 39 40 41 42 43 44 45 46 47 48 49 50
000
SXUS52 KCHS 271225
OSOCHS

MARINE OBSERVATIONS
NATIONAL WEATHER SERVICE CHARLESTON SC
700 AM EST THU NOV 27 2014

...DOWNTOWN CHARLESTON AND HARBOR...

CITY           SKY/WX    TMP DP  RH WIND       PRES   REMARKS
WATERFRONT PRK   N/A     48 N/A N/A W8G15       N/A
FORT JOHNSON   NOT AVBL

...LAKE MOULTRIE...

CITY           SKY/WX    TMP DP  RH WIND       PRES   REMARKS
PINOPOLIS        N/A     46  39  76 SW17      30.01R

...LAKE AND SUPPLEMENTAL COASTAL OBSERVATIONS...

STATION/POSITION TIME  TEMP    WIND        PRES    WAVE   SWELL
                       AIR SEA DIR/SP/G            HT/PER HT/PER/DIR
                 (UTC) (F)     (DEG/KT/KT) (MB)    (FT/S) (FT/S/D)
FORT PULASKI     1200   49     260/ 13/ 19 1021.7R
SAPELO ISLAND    1200   47     260/ 10     1022.0S
UPR LAKE MARION  NOT AVBL
WINYAH BAY       1200   45     230/  7     1018.0S
LAKE MURRAY      1100   48     270/ 22/ 29 1016.3R
ACE BASIN NERRS  1200   46     250/  4     1020.0S


...C-MAN AND BUOY OBSERVATIONS...

STATION/POSITION TIME  TEMP    WIND        PRES    WAVE   SWELL
                       AIR SEA DIR/SP/G            HT/PER HT/PER/DIR
                 (UTC) (F)     (DEG/KT/KT) (MB)    (FT/S) (FT/S/D)
BUOY 41004       1200   62 74  250/ 27/ 35 1018.0F   6/ 6   2/14
BUOY 41008       1200   55 64  280/ 23/ 29 1021.5R   4/ 5   2/110/ 9
FOLLY BEACH CMAN 1200   48     260/  8/ 10 1020.0R
CAPERS NS BUOY   1100   56     260/ 25/ 29   N/A
FRIPP NS BUOY    NOT AVBL
5E ST. MARYS GA  1200      61                N/A     2/ 9


STATION/POSITION TIME  TEMP    WIND        PRES    WAVE   SWELL
                       AIR SEA DIR/SP/G            HT/PER HT/PER/DIR
                 (UTC) (F)     (DEG/KT/KT) (MB)    (FT/S) (FT/S/D)
FRYING PAN BUOY  1200   59 70  250/ 17/ 23 1018.3F   5/ 6   2/140/ 9
BUOY 41025       1200   50     290/  2/  8 1018.7S   6/ 9   5/140/ 9
CAPE LOOKOUT NC  1200   49     180/  3/  5 1018.1S
BUOY 41002       1101   65 73  300/ 12/ 16 1020.4R   9/ 8   8/260/ 8
BUOY 41010       1200   68 78  320/ 16/ 21 1022.4R   6/ 7   3/ 40/15
ST AUGUSTINE FL  1200   44     230/  6/  8 1024.1R


$$



USA.gov is the U.S. government's official web portal to all federal, state and local government web resources and services.